CW9991 Weather Reports


time (UTC)temp
F
wind
direction
speed
knots
gust
knots
rain 1hr
in
rain 24hr
in
rain mn
in
humidity
%
barometer
mb
20260505122031 56 201 0.0 0.0 0.00 0.00 0.00 37 1007.7
20260505121014 56 202 0.0 0.0 0.00 0.00 0.00 36 1007.7
20260505120026 56 181 0.0 1.7 0.00 0.00 0.00 39 1007.6
20260505115017 57 185 0.0 3.5 0.00 0.00 0.00 42 1007.6
20260505114022 57 193 0.0 2.6 0.00 0.00 0.00 45 1007.6
20260505113013 57 197 1.7 4.3 0.00 0.00 0.00 48 1007.6
20260505112018 57 164 0.0 3.5 0.00 0.00 0.00 50 1007.5
20260505111029 57 196 0.0 5.2 0.00 0.00 0.00 51 1007.5
20260505102038 58 359 0.9 5.2 0.00 0.00 0.00 52 1007.5
20260505101028 58 160 1.7 7.0 0.00 0.00 0.00 52 1007.5
20260505100012 58 159 1.7 5.2 0.00 0.00 0.00 52 1007.5
20260505095044 58 208 0.0 3.5 0.00 0.00 0.00 52 1007.6
20260505094014 58 183 0.0 3.5 0.00 0.00 0.00 52 1007.6
20260505093026 58 190 0.0 7.0 0.00 0.00 0.00 52 1007.8
20260505092029 58 141 0.9 5.2 0.00 0.00 0.00 52 1007.8
20260505091041 58 172 1.7 7.0 0.00 0.00 0.00 51 1007.8
20260505090031 58 177 0.9 7.0 0.00 0.00 0.00 51 1007.8
20260505085015 59 164 0.0 6.1 0.00 0.00 0.00 51 1007.9
20260505084026 59 168 1.7 6.1 0.00 0.00 0.00 51 1007.8
20260505083015 59 214 0.9 6.1 0.00 0.00 0.00 51 1007.8
20260505082026 59 161 3.5 9.6 0.00 0.00 0.00 51 1007.8
20260505081039 58 172 1.7 8.7 0.00 0.00 0.00 51 1007.9
20260505080029 58 167 0.9 7.8 0.00 0.00 0.00 51 1008.1
20260505075042 58 145 1.7 5.2 0.00 0.00 0.00 51 1008.3
20260505074048 58 146 0.9 5.2 0.00 0.00 0.00 51 1008.4
20260505073038 59 142 0.9 3.5 0.00 0.00 0.00 51 1008.4
20260505072021 59 161 3.5 14.8 0.00 0.00 0.00 50 1008.4
20260505071016 59 359 1.7 6.1 0.00 0.00 0.00 49 1008.6
20260505070020 59 156 0.9 7.0 0.00 0.00 0.00 48 1008.6
20260505065031 59 107 3.5 9.6 0.00 0.00 0.00 49 1008.5
20260505064015 59 144 2.6 9.6 0.00 0.00 0.00 50 1008.5
20260505063026 60 172 3.5 10.4 0.00 0.00 0.00 50 1008.5
20260505062039 60 359 3.5 8.7 0.00 0.00 0.00 50 1008.5
20260505061029 60 220 2.6 10.4 0.00 0.00 0.00 50 1008.4
20260505060041 61 204 0.9 7.8 0.00 0.00 0.00 50 1008.3
20260505055025 61 181 0.9 3.5 0.00 0.00 0.00 48 1008.0
20260505054037 61 226 0.0 2.6 0.00 0.00 0.00 47 1007.7
20260505053020 62 187 0.0 2.6 0.00 0.00 0.00 46 1007.6
20260505052030 62 181 0.0 2.6 0.00 0.00 0.00 46 1007.4
20260505051014 62 200 0.9 3.5 0.00 0.00 0.00 46 1007.4
20260505041029 65 166 2.6 6.1 0.00 0.00 0.00 39 1006.5
20260505040040 65 174 0.9 5.2 0.00 0.00 0.00 38 1006.4
20260505035030 66 164 1.7 8.7 0.00 0.00 0.00 36 1006.4
20260505034014 66 211 3.5 7.0 0.00 0.00 0.00 35 1006.3
20260505033025 66 185 0.0 0.0 0.00 0.00 0.00 34 1006.0
20260505032035 66 190 0.0 0.0 0.00 0.00 0.00 34 1005.8
20260505031040 67 189 0.0 0.0 0.00 0.00 0.00 33 1005.7
20260505030031 67 189 0.0 0.0 0.00 0.00 0.00 32 1005.5
20260505025020 68 189 0.0 1.7 0.00 0.00 0.00 32 1005.4
20260505024022 68 201 0.0 2.6 0.00 0.00 0.00 32 1005.4
20260505023014 68 193 0.0 2.6 0.00 0.00 0.00 31 1005.3
20260505022045 69 222 0.0 7.8 0.00 0.00 0.00 31 1005.2
20260505021036 69 226 0.0 4.3 0.00 0.00 0.00 30 1005.1
20260505020020 70 206 1.7 7.8 0.00 0.00 0.00 29 1005.0
20260505015030 70 212 0.0 6.1 0.00 0.00 0.00 29 1005.0
20260505014020 70 218 0.9 5.2 0.00 0.00 0.00 28 1005.0
20260505013024 71 187 2.6 7.8 0.00 0.00 0.00 28 1005.1
20260505012015 71 211 0.9 5.2 0.00 0.00 0.00 28 1005.1
20260505011020 71 185 3.5 6.1 0.00 0.00 0.00 28 1005.1
20260505010032 71 224 2.6 8.7 0.00 0.00 0.00 29 1005.3
20260505005023 71 183 4.3 9.6 0.00 0.00 0.00 29 1005.4
20260505004034 72 168 4.3 9.6 0.00 0.00 0.00 29 1005.4
20260505003018 72 150 0.9 11.3 0.00 0.00 0.00 28 1005.4
20260505002029 73 220 2.6 12.2 0.00 0.00 0.00 27 1005.6
20260505001041 73 237 2.6 10.4 0.00 0.00 0.00 26 1005.6
20260505000051 73 173 0.9 9.6 0.00 0.00 0.00 25 1005.7
20260504235041 74 235 3.5 8.7 0.00 0.00 0.00 24 1005.7
20260504234024 74 359 2.6 9.6 0.00 0.00 0.00 24 1005.6
20260504233016 74 207 2.6 10.4 0.00 0.00 0.00 24 1005.7
20260504232047 73 247 2.6 12.2 0.00 0.00 0.00 25 1005.8
20260504231038 74 218 2.6 13.0 0.00 0.00 0.00 26 1005.7
20260504230022 74 248 4.3 9.6 0.00 0.00 0.00 26 1005.7
20260504225034 74 253 4.3 13.9 0.00 0.00 0.00 27 1005.7
20260504224018 73 230 5.2 13.9 0.00 0.00 0.00 27 1005.8
20260504223013 74 260 6.1 13.0 0.00 0.00 0.00 27 1005.7
20260504222041 77 257 1.7 8.7 0.00 0.00 0.00 21 1005.7
20260504221024 77 283 0.9 7.0 0.00 0.00 0.00 22 1005.8
20260504220019 75 251 0.9 7.0 0.00 0.00 0.00 22 1005.9
20260504215030 76 268 0.0 0.0 0.00 0.00 0.00 22 1006.0
20260504214014 76 359 0.0 8.7 0.00 0.00 0.00 21 1006.2
20260504213046 76 279 1.7 7.0 0.00 0.00 0.00 20 1006.3
20260504212016 76 233 2.6 7.8 0.00 0.00 0.00 22 1006.5
20260504211020 75 248 0.0 3.5 0.00 0.00 0.00 22 1006.6
20260504210100 76 283 0.0 7.0 0.00 0.00 0.00 21 1006.7
20260504205023 76 264 0.0 4.3 0.00 0.00 0.00 21 1006.8
20260504204034 75 4 0.0 3.5 0.00 0.00 0.00 21 1006.9
20260504203019 75 260 1.7 7.0 0.00 0.00 0.00 20 1007.0
20260504202030 75 289 0.0 4.3 0.00 0.00 0.00 23 1007.1
20260504201042 74 269 1.7 8.7 0.00 0.00 0.00 23 1007.2
20260504200025 74 359 0.0 7.0 0.00 0.00 0.00 24 1007.3
20260504195016 74 251 0.0 7.0 0.00 0.00 0.00 24 1007.4
20260504194029 73 258 1.7 10.4 0.00 0.00 0.00 24 1007.6
20260504193101 74 231 3.5 6.1 0.00 0.00 0.00 24 1007.8
20260504192023 73 268 3.5 7.0 0.00 0.00 0.00 24 1007.9
20260504191036 72 195 0.9 7.8 0.00 0.00 0.00 26 1007.9
20260504190020 72 236 3.5 7.0 0.00 0.00 0.00 26 1008.0
20260504185031 73 239 2.6 8.7 0.00 0.00 0.00 27 1008.1
20260504184015 73 359 0.0 8.7 0.00 0.00 0.00 27 1008.1
20260504183027 73 229 0.0 1.7 0.00 0.00 0.00 28 1008.3
20260504182018 72 261 0.0 2.6 0.00 0.00 0.00 26 1008.4
20260504181029 73 359 0.0 0.0 0.00 0.00 0.00 27 1008.5
20260504180013 72 115 0.0 2.6 0.00 0.00 0.00 28 1008.6
20260504175025 72 203 0.0 2.6 0.00 0.00 0.00 29 1008.8
20260504174037 71 237 0.0 4.3 0.00 0.00 0.00 30 1008.8
20260504173021 70 243 0.0 2.6 0.00 0.00 0.00 31 1008.9
20260504172032 70 359 0.0 4.3 0.00 0.00 0.00 31 1008.9
20260504171015 70 261 0.9 3.5 0.00 0.00 0.00 32 1009.0
20260504151028 65 162 2.6 8.7 0.00 0.00 0.00 38 1009.3
20260504141014 63 156 0.0 6.1 0.00 0.00 0.00 40 1009.4